Temp_Advection
nan nan nan nan nan nan nan nan nan nan nan nan nan nan nan nan nan nan nan nan nan nan
nan -1 -1 -1 -1 -1 -2 -1 -1 -0 1 -0 0 0 0 0 -0 0 0 1 1 nan
nan -1 -1 -1 -1 -1 -1 -2 -2 1 0 0 -0 -0 0 0 0 1 0 1 2 nan
nan -1 -1 -1 -1 -1 -1 -1 -1 -1 -1 1 -0 0 1 0 0 1 1 1 1 nan
nan -1 -1 -1 -1 -1 -1 -1 -1 -1 0 1 -0 -0 0 0 0 0 0 0 0 nan
nan -1 -1 -1 -1 -1 -1 -1 -1 -1 -0 -0 -0 -0 0 -0 0 0 0 0 1 nan
nan -1 -1 -1 -1 -1 -1 -1 -1 -1 -1 -0 -0 0 0 0 0 1 0 0 1 nan
nan -0 -0 -0 -1 -1 -1 -1 -1 -1 -1 -1 0 1 0 0 -0 0 0 0 0 nan
nan -1 -1 -1 -1 -1 -1 -1 -1 -1 -1 -0 0 -0 -0 1 1 0 0 0 0 nan
nan -1 -1 -0 -1 -1 -1 -1 -1 -0 -1 -1 -0 -0 1 1 0 0 0 0 0 nan
nan -1 -1 -0 -0 -1 -0 -0 -0 -1 -1 -1 -0 0 0 -0 0 1 0 0 -0 nan
nan -1 -0 -1 -0 -0 -0 -0 -0 -0 -0 -1 -0 0 0 -0 0 0 0 0 0 nan
nan -1 -0 -1 -1 -0 -0 0 0 0 0 -0 -0 0 0 0 0 0 0 0 0 nan
nan nan nan nan nan nan nan nan nan nan nan nan nan nan nan nan nan nan nan nan nan nan
Wind_Speed
26 24 25 25 22 17 13 22 25 33 34 39 36 34 41 45 49 41 46 40 45 44
28 26 27 25 25 19 17 17 24 32 37 39 40 38 33 42 43 44 43 37 40 40
28 27 27 26 26 23 18 13 24 32 33 33 39 35 34 42 41 44 43 42 43 39
28 27 27 26 25 25 21 15 14 20 29 28 36 37 36 42 39 45 43 44 42 38
28 27 27 26 25 25 23 17 13 18 27 29 30 36 38 42 39 37 41 40 38 42
28 28 28 26 25 23 24 19 12 11 23 26 29 33 35 36 35 39 34 37 37 41
28 27 28 28 26 25 23 22 14 10 17 22 29 29 31 32 34 34 34 37 36 38
28 27 27 27 25 24 23 21 16 15 11 19 26 27 29 29 32 35 33 32 31 34
26 27 27 27 26 24 21 19 16 14 14 13 19 24 30 30 33 32 35 33 32 31
26 25 27 27 27 25 21 17 14 13 13 12 14 18 22 28 29 30 32 32 30 32
24 24 27 26 27 23 21 19 16 13 11 11 12 15 15 23 24 28 30 30 27 32
24 23 25 27 27 26 23 21 18 14 12 9 7 11 14 17 23 25 28 27 26 26
24 22 22 27 28 25 23 23 20 18 13 9 2 7 12 11 12 21 27 29 27 25
23 21 19 21 24 23 24 24 21 20 16 14 11 7 3 6 9 13 19 25 31 30
Wind_Direction
345 337 329 324 320 305 265 230 212 207 222 227 226 225 225 210 204 206 206 214 205 200
342 342 334 325 319 317 298 246 232 209 205 226 218 230 226 219 219 219 214 218 210 210
346 341 337 331 324 312 307 282 233 226 210 211 226 225 224 221 221 218 221 217 215 211
348 344 340 334 323 323 310 306 254 231 222 206 222 223 225 223 221 219 220 214 217 213
349 346 343 338 330 321 320 308 290 234 241 216 221 224 223 220 223 219 217 218 218 214
349 351 347 344 338 331 321 310 292 248 232 218 216 219 223 220 223 227 226 220 222 214
351 350 351 350 346 331 326 318 306 288 240 219 217 216 223 223 223 225 228 223 224 226
349 352 354 353 351 340 332 321 312 302 265 229 220 217 219 223 226 223 226 226 228 227
353 354 358 355 354 348 341 331 318 305 291 238 219 221 219 221 224 223 225 229 229 230
354 357 359 1 360 352 350 351 338 321 301 271 234 219 217 219 220 222 226 229 231 228
355 359 3 4 3 2 5 8 7 343 321 290 248 220 210 218 218 218 218 221 227 228
357 359 3 7 5 14 17 23 26 9 350 312 263 213 200 229 212 218 217 214 214 218
354 355 2 9 10 17 25 36 41 40 34 12 15 185 202 224 220 221 216 210 207 210
351 354 357 7 14 18 31 41 48 48 48 49 66 102 203 218 207 216 216 212 206 201
Height
1446 1441 1438 1430 1424 1422 1415 1418 1419 1424 1433 1438 1443 1445 1449 1454 1457 1462 1467 1474 1478 1481
1442 1435 1430 1426 1423 1412 1416 1410 1412 1417 1423 1429 1435 1440 1445 1449 1454 1460 1464 1471 1475 1482
1440 1433 1429 1419 1416 1418 1412 1409 1404 1408 1414 1421 1427 1432 1437 1443 1448 1454 1460 1466 1473 1478
1438 1432 1426 1420 1418 1410 1409 1403 1402 1404 1405 1414 1419 1425 1430 1435 1441 1448 1455 1461 1469 1475
1440 1433 1425 1418 1412 1410 1402 1400 1396 1394 1398 1405 1412 1417 1423 1427 1434 1442 1449 1457 1463 1470
1438 1426 1423 1419 1411 1404 1404 1401 1396 1393 1395 1400 1406 1410 1416 1421 1429 1436 1443 1450 1457 1464
1440 1435 1425 1415 1405 1408 1403 1395 1389 1391 1390 1390 1398 1403 1410 1415 1422 1429 1437 1444 1451 1457
1437 1431 1422 1417 1407 1403 1398 1392 1386 1386 1386 1385 1390 1396 1403 1408 1415 1423 1430 1438 1444 1450
1436 1427 1421 1417 1412 1406 1400 1391 1384 1383 1384 1384 1386 1391 1395 1403 1411 1415 1424 1430 1437 1444
1435 1432 1425 1418 1412 1406 1400 1391 1383 1382 1382 1379 1380 1384 1391 1397 1402 1408 1416 1422 1430 1436
1438 1432 1426 1421 1416 1409 1397 1389 1383 1382 1379 1378 1379 1380 1388 1390 1394 1402 1409 1415 1422 1429
1438 1434 1429 1422 1417 1403 1397 1388 1381 1385 1382 1379 1375 1379 1382 1382 1389 1397 1402 1408 1416 1422
1437 1433 1427 1419 1408 1406 1401 1391 1389 1390 1384 1379 1375 1378 1383 1385 1387 1393 1397 1402 1409 1418
1435 1432 1427 1422 1417 1413 1404 1401 1398 1392 1390 1386 1385 1385 1386 1388 1387 1390 1394 1396 1403 1412